• Join FlightAware (Why Join?)
  • Login
  • US Flag 
 
01:14AM EST


 

Airport Tracker/Info


-or-


 

Live Flight TrackerFlight Track Log ✈ N960DL ✈ 27-Apr-2013 ✈ MYNN / NAS - KATL

Flight Track Log - Related Links

Times and Time Zones

All times are in EDT time to prevent confusion due to time zone crossing. See the N960DL flight status page for this flight to view local times or setup timezone preferences in your user account.

Time Position Orientation Groundspeed Altitude Reporting Facility
EDT Latitude Longitude Course Direction KTS MPH feet Rate Location/Type
01:24PM 25.0908 -77.3911 318° Northwest 439 505 4,700  Level Miami Center
01:25PM 25.2361 -77.7599 313° West  Level FlightAware Approximate
01:25PM 25.1239 -77.4739 294° West 340 391 8,200  Level Miami Center
01:26PM 25.3184 -77.8523 310° West  Level FlightAware Approximate
01:26PM 25.1550 -77.5497 294° West 314 361 10,400  Level Miami Center
01:27PM 25.3976 -77.9476 318° Northwest  Level FlightAware Approximate
01:27PM 25.1919 -77.6464 293° West 314 361 11,900  Level Miami Center
01:28PM 25.4686 -78.0495 307° West  Level FlightAware Approximate
01:28PM 25.2394 -77.7503 297° West 354 407 13,700  Level Miami Center
01:29PM 25.5390 -78.1520 307° West  Level FlightAware Approximate
01:29PM 25.3161 -77.8497 310° West 380 437 16,300  Level Miami Center
01:30PM 25.6152 -78.2485 318° Northwest  Level FlightAware Approximate
01:30PM 25.3908 -77.9492 310° West 412 474 18,600  Level Miami Center
01:31PM 25.4631 -78.0511 308° West 417 480 20,600 1,740 Climbing Miami Center
01:32PM 25.5417 -78.1578 309° West 427 491 22,100 1,740 Climbing Miami Center
01:33PM 25.6200 -78.2647 309° West 437 503 24,100 1,980 Climbing Miami Center
01:34PM 25.6900 -78.3761 305° West 442 509 26,100 1,800 Climbing Miami Center
01:35PM 25.7283 -78.5058 288° West 442 509 27,800 1,800 Climbing Miami Center
01:36PM 25.7581 -78.6356 284° West 442 509 29,700 1,620 Climbing Miami Center
01:37PM 25.7878 -78.7675 284° West 437 503 31,100 1,140 Climbing Miami Center
01:38PM 25.8197 -78.8925 286° West 432 497 32,000 1,080 Climbing Miami Center
01:39PM 25.8408 -79.0175 281° West 427 491 33,300 960 Climbing Miami Center
01:40PM 25.8681 -79.1428 284° West 422 486 34,000 300 Climbing Miami Center
01:41PM 25.8931 -79.2772 282° West 414 476 34,000  Level Miami Center
01:42PM 25.9164 -79.3931 283° West 414 476 34,000  Level Miami Center
01:43PM 25.9453 -79.5300 283° West 417 480 34,000  Level Miami Center
01:44PM 25.9703 -79.6439 284° West 417 480 34,000  Level Miami Center
01:45PM 25.9972 -79.7669 284° West 411 473 34,000  Level Miami Center
01:46PM 26.0239 -79.8925 283° West 411 473 34,000  Level Miami Center
01:47PM 26.0506 -80.0158 284° West 411 473 34,000  Level Miami Center
01:48PM 26.0833 -80.1369 287° West 411 473 34,000  Level Miami Center
01:49PM 26.1775 -80.2136 324° Northwest 400 460 34,000  Level Miami Center
01:50PM 26.3039 -80.2589 342° North 404 465 34,000  Level Miami Center
01:51PM 26.4072 -80.3058 338° Northwest 428 493 34,000 -420 Level Miami Center
01:52PM 26.5292 -80.3628 337° Northwest 435 501 33,200 -540 Descending Miami Center
01:53PM 26.6325 -80.4125 337° Northwest 435 501 33,000 -120 Descending Miami Center
01:54PM 26.7583 -80.4697 338° Northwest 440 506 33,000  Level Miami Center
01:55PM 26.8575 -80.5169 337° Northwest 440 506 33,000  Level Miami Center
01:56PM 26.9731 -80.5742 336° Northwest 440 506 33,000  Level Miami Center
01:57PM 27.0842 -80.6292 336° Northwest 435 501 33,000  Level Miami Center
01:58PM 27.1997 -80.6842 337° Northwest 435 501 33,000  Level Miami Center
01:59PM 27.3131 -80.7369 338° Northwest 435 501 33,000  Level Miami Center
02:00PM 27.4264 -80.7922 337° Northwest 435 501 33,000  Level Miami Center
02:01PM 27.5419 -80.8453 338° Northwest 435 501 33,000  Level Miami Center
02:02PM 27.6553 -80.8986 337° Northwest 435 501 33,000  Level Miami Center
02:03PM 27.7706 -80.9567 336° Northwest 440 506 33,000  Level Miami Center
02:04PM 27.8839 -81.0100 337° Northwest 440 506 33,000  Level Miami Center
02:05PM 27.9950 -81.0611 338° Northwest 440 506 33,000  Level Miami Center
02:06PM 28.1061 -81.1194 335° Northwest 429 494 33,000  Level Miami Center
02:07PM 28.2361 -81.1597 345° North 434 499 33,000  Level Miami Center
02:08PM 28.3567 -81.1808 351° North 439 505 33,000  Level Miami Center
02:09PM 28.4811 -81.1997 352° North 445 512 33,000  Level Miami Center
02:11PM 28.6275 -81.2275 351° North 442 509 33,000  Level Jacksonville Center
02:12PM 28.7489 -81.2467 352° North 447 514 33,000  Level Jacksonville Center
02:13PM 28.8722 -81.2661 352° North 447 514 33,000  Level Jacksonville Center
02:14PM 28.9956 -81.2856 352° North 447 514 33,000  Level Jacksonville Center
02:15PM 29.1169 -81.3047 352° North 447 514 33,000  Level Jacksonville Center
02:16PM 29.2361 -81.3267 351° North 447 514 33,000  Level Jacksonville Center
02:17PM 29.3553 -81.3464 352° North 435 501 33,000  Level Jacksonville Center
02:18PM 29.4744 -81.3611 354° North 429 494 33,000  Level Jacksonville Center
02:19PM 29.5917 -81.3831 351° North 429 494 33,000  Level Jacksonville Center
02:20PM 29.7108 -81.4053 351° North 429 494 33,000  Level Jacksonville Center
02:21PM 29.8300 -81.4250 352° North 429 494 33,000  Level Jacksonville Center
02:22PM 29.9472 -81.4472 351° North 429 494 33,000  Level Jacksonville Center
02:23PM 30.0664 -81.4669 352° North 429 494 33,000  Level Jacksonville Center
02:24PM 30.1731 -81.4847 352° North 434 499 33,000  Level Jacksonville Center
02:25PM 30.2944 -81.5069 351° North 428 493 33,000  Level Jacksonville Center
02:26PM 30.4036 -81.5511 341° North 421 484 33,000  Level Jacksonville Center
02:27PM 30.5106 -81.6122 334° Northwest 421 484 33,000  Level Jacksonville Center
02:28PM 30.6156 -81.6736 333° Northwest 421 484 33,000  Level Jacksonville Center
02:29PM 30.7206 -81.7350 333° Northwest 421 484 33,000  Level Jacksonville Center
02:30PM 30.8233 -81.7967 333° Northwest 416 479 33,000  Level Jacksonville Center
02:31PM 30.9306 -81.8583 334° Northwest 416 479 33,000  Level Jacksonville Center
02:32PM 31.0333 -81.9203 333° Northwest 411 473 33,000  Level Jacksonville Center
02:33PM 31.1381 -81.9800 334° Northwest 416 479 33,000  Level Jacksonville Center
02:34PM 31.2431 -82.0444 332° Northwest 416 479 33,000  Level Jacksonville Center
02:35PM 31.3456 -82.1069 332° Northwest 416 479 33,000  Level Jacksonville Center
02:36PM 31.4525 -82.1669 334° Northwest 416 479 33,000  Level Jacksonville Center
02:37PM 31.5553 -82.2319 332° Northwest 416 479 33,000  Level Jacksonville Center
02:38PM 31.6683 -82.2969 334° Northwest 409 471 33,000  Level Jacksonville Center
02:39PM 31.7667 -82.3500 335° Northwest 414 476 33,000  Level Jacksonville Center
02:41PM 32.0167 -82.5006 333° Northwest 423 487 33,000  Level Atlanta Center
02:42PM 32.1219 -82.5675 332° Northwest 418 481 33,000  Level Atlanta Center
02:43PM 32.2228 -82.6297 332° Northwest 412 474 33,000  Level Atlanta Center
02:44PM 32.3072 -82.7217 317° Northwest 412 474 33,000  Level Atlanta Center
02:45PM 32.3939 -82.8211 316° Northwest 412 474 33,000  Level Atlanta Center
02:46PM 32.4783 -82.9233 314° West 417 480 33,000  Level Atlanta Center
02:47PM 32.5564 -83.0136 316° Northwest 417 480 33,000 -240 Level Atlanta Center
02:48PM 32.6344 -83.1114 313° West 417 480 32,600 -1,440 Descending Atlanta Center
02:49PM 32.7164 -83.2069 316° Northwest 417 480 30,200 -2,700 Descending Atlanta Center
02:50PM 32.8006 -83.3097 314° West 423 487 27,200 -2,940 Descending Atlanta Center
02:51PM 32.8825 -83.4081 315° West 423 487 24,400 -2,700 Descending Atlanta Center
02:52PM 32.9622 -83.5017 315° West 418 481 21,800 -2,700 Descending Atlanta Center
02:53PM 33.0378 -83.5928 315° West 401 461 19,100 -2,700 Descending Atlanta Center
02:54PM 33.1133 -83.6817 315° West 379 436 16,500 -2,520 Descending Atlanta Center
02:55PM 33.1908 -83.7806 313° West 374 430 14,100 -1,740 Descending Atlanta Center
02:55PM 33.2167 -83.8167 311° West 369 425 14,000 -120 Descending Atlanta TRACON
02:56PM 33.2833 -83.9000 314° West 363 418 14,000  Level Atlanta TRACON
02:57PM 33.3225 -83.9642 306° West 367 422 14,000  Level Atlanta Center
02:58PM 33.3831 -84.0561 308° West 361 415 14,000 -720 Level Atlanta Center
02:59PM 33.4497 -84.1408 313° West 356 410 12,600 -1,320 Descending Atlanta Center
02:59PM 33.4833 -84.1667 327° Northwest 356 410 12,100 -420 Descending Atlanta TRACON
03:00PM 33.5667 -84.2167 333° Northwest 285 328 12,000 -60 Descending Atlanta TRACON
03:01PM 33.6167 -84.2667 320° Northwest 258 297 12,000  Level Atlanta TRACON
03:02PM 33.6833 -84.3167 328° Northwest 263 303 12,000 -1,380 Level Atlanta TRACON
03:04PM 33.6367 -84.4279 243° Southwest  Level Estimated
03:04PM 33.7333 -84.4500 243° Southwest 235 270 8,000  Level Atlanta TRACON
03:05PM 33.7333 -84.5167 270° West 237 273 5,600 -2,040 Descending Atlanta TRACON
03:06PM 33.7333 -84.6167 270° West 229 264 4,000 -1,020 Descending Atlanta TRACON
03:07PM 33.6833 -84.6167 180° South 178 205 3,500 -540 Descending Atlanta TRACON